Starlink 33865

operational
NORAD ID: 64247 Int'l Des: 2025-119 Owner: SPXS Country: US Constellation: starlink
LEOCIRCULAR

About Starlink 33865

Description loading...

Live Position

Loading 3D Globe...

Upcoming Passes

Altitude History

Altitude vs Time

uPlot chart will show altitude changes over time

Two-Line Element Set

1 64247U 25119Q 25353.13952689 .00022013 00000-0 80696-3 0 9992
2 64247 42.9993 41.6566 0001062 209.9749 150.1042 15.27583875 31826
Epoch: Dec 19, 2025 • Age: 16 hours

Current Status

Altitude 483.4 km
Velocity 7.63 km/s
Sub-Earth Point 24.28°N, 50.02°E
Launch Date Jun 3, 2025
Age 0.5 years
Type internet

Technical Details

Classification Payload
Mass 575.00 kg
Dry Mass 530.00 kg
Total Mass 575.00 kg
Length 0.30 m
Diameter 4.10 m
Span 29.00 m
Shape Box + pan
Manufacturer SPXS
Bus Type Starlink V2MO
Phase Status In Orbit
Owner/State SPXS/US

Large Constellations

Loading constellations...